Year,Month,Day,Hour,Minute,Value (Times are PST for temperature in C)
2018,05,28,00,00,13.30
2018,05,28,00,01,13.30
2018,05,28,00,02,13.20
2018,05,28,00,03,13.20
2018,05,28,00,04,13.20
2018,05,28,00,05,13.20
2018,05,28,00,06,13.20
2018,05,28,00,07,13.10
2018,05,28,00,08,13.10
2018,05,28,00,09,13.10
2018,05,28,00,10,13.10
2018,05,28,00,11,13.10
2018,05,28,00,12,13.10
2018,05,28,00,13,13.10
2018,05,28,00,14,13.00
2018,05,28,00,15,13.00
2018,05,28,00,16,13.00
2018,05,28,00,17,13.00
2018,05,28,00,18,13.00
2018,05,28,00,19,13.00
2018,05,28,00,20,13.00
2018,05,28,00,21,13.00
2018,05,28,00,22,13.00
2018,05,28,00,23,13.00
2018,05,28,00,24,12.90
2018,05,28,00,25,12.90
2018,05,28,00,26,12.90
2018,05,28,00,27,12.90
2018,05,28,00,28,12.90
2018,05,28,00,29,12.90
2018,05,28,00,30,12.90
2018,05,28,00,31,12.90
2018,05,28,00,32,12.90
2018,05,28,00,33,12.90
2018,05,28,00,34,12.90
2018,05,28,00,35,12.90
2018,05,28,00,36,12.80
2018,05,28,00,37,12.80
2018,05,28,00,38,12.80
2018,05,28,00,39,12.80
2018,05,28,00,40,12.70
2018,05,28,00,41,12.70
2018,05,28,00,42,12.70
2018,05,28,00,43,12.60
2018,05,28,00,44,12.60
2018,05,28,00,45,12.60
2018,05,28,00,46,12.50
2018,05,28,00,47,12.50
2018,05,28,00,48,12.40
2018,05,28,00,49,12.40
2018,05,28,00,50,12.30
2018,05,28,00,51,12.30
2018,05,28,00,52,12.30
2018,05,28,00,53,12.30
2018,05,28,00,54,12.30
2018,05,28,00,55,12.30
2018,05,28,00,56,12.20
2018,05,28,00,57,12.20
2018,05,28,00,58,12.20
2018,05,28,00,59,12.20
2018,05,28,01,00,12.20
2018,05,28,01,01,12.20
2018,05,28,01,02,12.20
2018,05,28,01,03,12.20
2018,05,28,01,04,12.20
2018,05,28,01,05,12.30
2018,05,28,01,06,12.20
2018,05,28,01,07,12.20
2018,05,28,01,08,12.20
2018,05,28,01,09,12.20
2018,05,28,01,10,12.20
2018,05,28,01,11,12.20
2018,05,28,01,12,12.10
2018,05,28,01,13,12.10
2018,05,28,01,14,12.00
2018,05,28,01,15,12.00
2018,05,28,01,16,12.00
2018,05,28,01,17,12.00
2018,05,28,01,18,12.00
2018,05,28,01,19,12.00
2018,05,28,01,20,12.00
2018,05,28,01,21,12.00
2018,05,28,01,22,12.00
2018,05,28,01,23,12.00
2018,05,28,01,24,12.00
2018,05,28,01,25,12.10
2018,05,28,01,26,12.10
2018,05,28,01,27,12.20
2018,05,28,01,28,12.30
2018,05,28,01,29,12.40
2018,05,28,01,30,12.50
2018,05,28,01,31,12.50
2018,05,28,01,32,12.50
2018,05,28,01,33,12.50
2018,05,28,01,34,12.60
2018,05,28,01,35,12.60
2018,05,28,01,36,12.60
2018,05,28,01,37,12.70
2018,05,28,01,38,12.70
2018,05,28,01,39,12.70
2018,05,28,01,40,12.80
2018,05,28,01,41,12.80
2018,05,28,01,42,12.80
2018,05,28,01,43,12.80
2018,05,28,01,44,12.80
2018,05,28,01,45,12.80
2018,05,28,01,46,12.80
2018,05,28,01,47,12.80
2018,05,28,01,48,12.80
2018,05,28,01,49,12.80
2018,05,28,01,50,12.70
2018,05,28,01,51,12.70
2018,05,28,01,52,12.60
2018,05,28,01,53,12.60
2018,05,28,01,54,12.50
2018,05,28,01,55,12.50
2018,05,28,01,56,12.50
2018,05,28,01,57,12.40
2018,05,28,01,58,12.40
2018,05,28,01,59,12.40
2018,05,28,02,00,12.30
2018,05,28,02,01,12.30
2018,05,28,02,02,12.30
2018,05,28,02,03,12.30
2018,05,28,02,04,12.20
2018,05,28,02,05,12.20
2018,05,28,02,06,12.10
2018,05,28,02,07,12.10
2018,05,28,02,08,12.10
2018,05,28,02,09,12.00
2018,05,28,02,10,12.00
2018,05,28,02,11,11.90
2018,05,28,02,12,11.90
2018,05,28,02,13,11.80
2018,05,28,02,14,11.80
2018,05,28,02,15,11.70
2018,05,28,02,16,11.70
2018,05,28,02,17,11.60
2018,05,28,02,18,11.60
2018,05,28,02,19,11.60
2018,05,28,02,20,11.50
2018,05,28,02,21,11.50
2018,05,28,02,22,11.40
2018,05,28,02,23,11.40
2018,05,28,02,24,11.40
2018,05,28,02,25,11.30
2018,05,28,02,26,11.30
2018,05,28,02,27,11.30
2018,05,28,02,28,11.30
2018,05,28,02,29,11.20
2018,05,28,02,30,11.20
2018,05,28,02,31,11.10
2018,05,28,02,32,11.10
2018,05,28,02,33,11.10
2018,05,28,02,34,11.00
2018,05,28,02,35,11.00
2018,05,28,02,36,11.00
2018,05,28,02,37,10.90
2018,05,28,02,38,10.90
2018,05,28,02,39,10.90
2018,05,28,02,40,10.80
2018,05,28,02,41,10.80
2018,05,28,02,42,10.80
2018,05,28,02,43,10.80
2018,05,28,02,44,10.70
2018,05,28,02,45,10.70
2018,05,28,02,46,10.70
2018,05,28,02,47,10.70
2018,05,28,02,48,10.60
2018,05,28,02,49,10.60
2018,05,28,02,50,10.60
2018,05,28,02,51,10.60
2018,05,28,02,52,10.60
2018,05,28,02,53,10.50
2018,05,28,02,54,10.50
2018,05,28,02,55,10.50
2018,05,28,02,56,10.50
2018,05,28,02,57,10.50
2018,05,28,02,58,10.50
2018,05,28,02,59,10.50
2018,05,28,03,00,10.50
2018,05,28,03,01,10.50
2018,05,28,03,02,10.50
2018,05,28,03,03,10.50
2018,05,28,03,04,10.50
2018,05,28,03,05,10.40
2018,05,28,03,06,10.40
2018,05,28,03,07,10.40
2018,05,28,03,08,10.40
2018,05,28,03,09,10.40
2018,05,28,03,10,10.40
2018,05,28,03,11,10.40
2018,05,28,03,12,10.40
2018,05,28,03,13,10.30
2018,05,28,03,14,10.30
2018,05,28,03,15,10.30
2018,05,28,03,16,10.30
2018,05,28,03,17,10.30
2018,05,28,03,18,10.30
2018,05,28,03,19,10.30
2018,05,28,03,20,10.40
2018,05,28,03,21,10.30
2018,05,28,03,22,10.30
2018,05,28,03,23,10.30
2018,05,28,03,24,10.30
2018,05,28,03,25,10.30
2018,05,28,03,26,10.30
2018,05,28,03,27,10.30
2018,05,28,03,28,10.20
2018,05,28,03,29,10.20
2018,05,28,03,30,10.20
2018,05,28,03,31,10.20
2018,05,28,03,32,10.20
2018,05,28,03,33,10.20
2018,05,28,03,34,10.20
2018,05,28,03,35,10.10
2018,05,28,03,36,10.10
2018,05,28,03,37,10.10
2018,05,28,03,38,10.10
2018,05,28,03,39,10.10
2018,05,28,03,40,10.10
2018,05,28,03,41,10.10
2018,05,28,03,42,10.00
2018,05,28,03,43,10.10
2018,05,28,03,44,10.10
2018,05,28,03,45,10.10
2018,05,28,03,46,10.10
2018,05,28,03,47,10.00
2018,05,28,03,48,10.00
2018,05,28,03,49,10.00
2018,05,28,03,50,10.00
2018,05,28,03,51,10.00
2018,05,28,03,52,10.10
2018,05,28,03,53,10.10
2018,05,28,03,54,10.00
2018,05,28,03,55,10.00
2018,05,28,03,56,10.00
2018,05,28,03,57,10.00
2018,05,28,03,58,10.00
2018,05,28,03,59,10.00
2018,05,28,04,00,10.00
2018,05,28,04,01,10.00
2018,05,28,04,02,10.10
2018,05,28,04,03,10.10
2018,05,28,04,04,10.10
2018,05,28,04,05,10.10
2018,05,28,04,06,10.10
2018,05,28,04,07,10.10
2018,05,28,04,08,10.10
2018,05,28,04,09,10.10
2018,05,28,04,10,10.10
2018,05,28,04,11,10.10
2018,05,28,04,12,10.10
2018,05,28,04,13,10.00
2018,05,28,04,14,10.00
2018,05,28,04,15,10.00
2018,05,28,04,16,9.90
2018,05,28,04,17,9.90
2018,05,28,04,18,9.90
2018,05,28,04,19,9.90
2018,05,28,04,20,9.90
2018,05,28,04,21,9.90
2018,05,28,04,22,9.90
2018,05,28,04,23,9.90
2018,05,28,04,24,9.90
2018,05,28,04,25,9.90
2018,05,28,04,26,9.90
2018,05,28,04,27,9.90
2018,05,28,04,28,9.90
2018,05,28,04,29,9.90
2018,05,28,04,30,9.90
2018,05,28,04,31,9.80
2018,05,28,04,32,9.80
2018,05,28,04,33,9.80
2018,05,28,04,34,9.80
2018,05,28,04,35,9.80
2018,05,28,04,36,9.80
2018,05,28,04,37,9.80
2018,05,28,04,38,9.80
2018,05,28,04,39,9.80
2018,05,28,04,40,9.80
2018,05,28,04,41,9.80
2018,05,28,04,42,9.80
2018,05,28,04,43,9.80
2018,05,28,04,44,9.80
2018,05,28,04,45,9.80
2018,05,28,04,46,9.80
2018,05,28,04,47,9.80
2018,05,28,04,48,9.80
2018,05,28,04,49,9.80
2018,05,28,04,50,9.80
2018,05,28,04,51,9.80
2018,05,28,04,52,9.80
2018,05,28,04,53,9.80
2018,05,28,04,54,9.80
2018,05,28,04,55,9.80
2018,05,28,04,56,9.80
2018,05,28,04,57,9.80
2018,05,28,04,58,9.80
2018,05,28,04,59,9.80
2018,05,28,05,00,9.80
2018,05,28,05,01,9.80
2018,05,28,05,02,9.80
2018,05,28,05,03,9.80
2018,05,28,05,04,9.80
2018,05,28,05,05,9.80
2018,05,28,05,06,9.80
2018,05,28,05,07,9.80
2018,05,28,05,08,9.80
2018,05,28,05,09,9.70
2018,05,28,05,10,9.70
2018,05,28,05,11,9.70
2018,05,28,05,12,9.70
2018,05,28,05,13,9.70
2018,05,28,05,14,9.70
2018,05,28,05,15,9.70
2018,05,28,05,16,9.70
2018,05,28,05,17,9.70
2018,05,28,05,18,9.70
2018,05,28,05,19,9.70
2018,05,28,05,20,9.70
2018,05,28,05,21,9.70
2018,05,28,05,22,9.70
2018,05,28,05,23,9.70
2018,05,28,05,24,9.80
2018,05,28,05,25,9.80
2018,05,28,05,26,9.80
2018,05,28,05,27,9.80
2018,05,28,05,28,9.80
2018,05,28,05,29,9.90
2018,05,28,05,30,9.90
2018,05,28,05,31,9.90
2018,05,28,05,32,9.90
2018,05,28,05,33,9.90
2018,05,28,05,34,9.90
2018,05,28,05,35,9.80
2018,05,28,05,36,9.80
2018,05,28,05,37,9.80
2018,05,28,05,38,9.80
2018,05,28,05,39,9.80
2018,05,28,05,40,9.80
2018,05,28,05,41,9.80
2018,05,28,05,42,9.80
2018,05,28,05,43,9.80
2018,05,28,05,44,9.80
2018,05,28,05,45,9.80
2018,05,28,05,46,9.80
2018,05,28,05,47,9.80
2018,05,28,05,48,9.80
2018,05,28,05,49,9.80
2018,05,28,05,50,9.80
2018,05,28,05,51,9.70
2018,05,28,05,52,9.70
2018,05,28,05,53,9.70
2018,05,28,05,54,9.70
2018,05,28,05,55,9.70
2018,05,28,05,56,9.70
2018,05,28,05,57,9.70
2018,05,28,05,58,9.70
2018,05,28,05,59,9.70
2018,05,28,06,00,9.70
2018,05,28,06,01,9.70
2018,05,28,06,02,9.70
2018,05,28,06,03,9.70
2018,05,28,06,04,9.70
2018,05,28,06,05,9.70
2018,05,28,06,06,9.70
2018,05,28,06,07,9.70
2018,05,28,06,08,9.70
2018,05,28,06,09,9.70
2018,05,28,06,10,9.70
2018,05,28,06,11,9.70
2018,05,28,06,12,9.70
2018,05,28,06,13,9.70
2018,05,28,06,14,9.70
2018,05,28,06,15,9.70
2018,05,28,06,16,9.70
2018,05,28,06,17,9.80
2018,05,28,06,18,9.80
2018,05,28,06,19,9.80
2018,05,28,06,20,9.90
2018,05,28,06,21,9.90
2018,05,28,06,22,9.90
2018,05,28,06,23,10.00
2018,05,28,06,24,10.10
2018,05,28,06,25,10.10
2018,05,28,06,26,10.10
2018,05,28,06,27,10.20
2018,05,28,06,28,10.20
2018,05,28,06,29,10.20
2018,05,28,06,30,10.20
2018,05,28,06,31,10.20
2018,05,28,06,32,10.30
2018,05,28,06,33,10.30
2018,05,28,06,34,10.30
2018,05,28,06,35,10.30
2018,05,28,06,36,10.30
2018,05,28,06,37,10.40
2018,05,28,06,38,10.40
2018,05,28,06,39,10.40
2018,05,28,06,40,10.40
2018,05,28,06,41,10.40
2018,05,28,06,42,10.40
2018,05,28,06,43,10.40
2018,05,28,06,44,10.40
2018,05,28,06,45,10.40
2018,05,28,06,46,10.40
2018,05,28,06,47,10.40
2018,05,28,06,48,10.40
2018,05,28,06,49,10.40
2018,05,28,06,50,10.40
2018,05,28,06,51,10.40
2018,05,28,06,52,10.40
2018,05,28,06,53,10.40
2018,05,28,06,54,10.40
2018,05,28,06,55,10.50
2018,05,28,06,56,10.50
2018,05,28,06,57,10.50
2018,05,28,06,58,10.50
2018,05,28,06,59,10.60
2018,05,28,07,00,10.60
2018,05,28,07,01,10.60
2018,05,28,07,02,10.60
2018,05,28,07,03,10.70
2018,05,28,07,04,10.70
2018,05,28,07,05,10.70
2018,05,28,07,06,10.80
2018,05,28,07,07,10.80
2018,05,28,07,08,10.80
2018,05,28,07,09,10.80
2018,05,28,07,10,10.80
2018,05,28,07,11,10.90
2018,05,28,07,12,10.90
2018,05,28,07,13,10.90
2018,05,28,07,14,10.90
2018,05,28,07,15,11.00
2018,05,28,07,16,11.00
2018,05,28,07,17,11.00
2018,05,28,07,18,11.10
2018,05,28,07,19,11.10
2018,05,28,07,20,11.10
2018,05,28,07,21,11.10
2018,05,28,07,22,11.10
2018,05,28,07,23,11.20
2018,05,28,07,24,11.20
2018,05,28,07,25,11.20
2018,05,28,07,26,11.20
2018,05,28,07,27,11.20
2018,05,28,07,28,11.20
2018,05,28,07,29,11.20
2018,05,28,07,30,11.30
2018,05,28,07,31,11.30
2018,05,28,07,32,11.30
2018,05,28,07,33,11.40
2018,05,28,07,34,11.40
2018,05,28,07,35,11.50
2018,05,28,07,36,11.50
2018,05,28,07,37,11.60
2018,05,28,07,38,11.60
2018,05,28,07,39,11.60
2018,05,28,07,40,11.60
2018,05,28,07,41,11.70
2018,05,28,07,42,11.70
2018,05,28,07,43,11.70
2018,05,28,07,44,11.80
2018,05,28,07,45,11.80
2018,05,28,07,46,11.80
2018,05,28,07,47,11.90
2018,05,28,07,48,11.90
2018,05,28,07,49,11.90
2018,05,28,07,50,12.00
2018,05,28,07,51,12.00
2018,05,28,07,52,12.00
2018,05,28,07,53,12.10
2018,05,28,07,54,12.10
2018,05,28,07,55,12.20
2018,05,28,07,56,12.20
2018,05,28,07,57,12.20
2018,05,28,07,58,12.30
2018,05,28,07,59,12.30
2018,05,28,08,00,12.30
2018,05,28,08,01,12.40
2018,05,28,08,02,12.40
2018,05,28,08,03,12.50
2018,05,28,08,04,12.50
2018,05,28,08,05,12.50
2018,05,28,08,06,12.50
2018,05,28,08,07,12.60
2018,05,28,08,08,12.60
2018,05,28,08,09,12.60
2018,05,28,08,10,12.60
2018,05,28,08,11,12.70
2018,05,28,08,12,12.70
2018,05,28,08,13,12.70
2018,05,28,08,14,12.80
2018,05,28,08,15,12.80
2018,05,28,08,16,12.80
2018,05,28,08,17,12.80
2018,05,28,08,18,12.80
2018,05,28,08,19,12.80
2018,05,28,08,20,12.90
2018,05,28,08,21,12.90
2018,05,28,08,22,12.90
2018,05,28,08,23,12.90
2018,05,28,08,24,12.90
2018,05,28,08,25,13.00
2018,05,28,08,26,13.00
2018,05,28,08,27,13.00
2018,05,28,08,28,13.10
2018,05,28,08,29,13.10
2018,05,28,08,30,13.10
2018,05,28,08,31,13.10
2018,05,28,08,32,13.10
2018,05,28,08,33,13.20
2018,05,28,08,34,13.20
2018,05,28,08,35,13.20
2018,05,28,08,36,13.20
2018,05,28,08,37,13.30
2018,05,28,08,38,13.30
2018,05,28,08,39,13.30
2018,05,28,08,40,13.30
2018,05,28,08,41,13.40
2018,05,28,08,42,13.40
2018,05,28,08,43,13.50
2018,05,28,08,44,13.50
2018,05,28,08,45,13.60
2018,05,28,08,46,13.70
2018,05,28,08,47,13.70
2018,05,28,08,48,13.70
2018,05,28,08,49,13.80
2018,05,28,08,50,13.80
2018,05,28,08,51,13.90
2018,05,28,08,52,13.90
2018,05,28,08,53,13.90
2018,05,28,08,54,14.00
2018,05,28,08,55,14.00
2018,05,28,08,56,14.10
2018,05,28,08,57,14.10
2018,05,28,08,58,14.10
2018,05,28,08,59,14.10
2018,05,28,09,00,14.20
2018,05,28,09,01,14.20
2018,05,28,09,02,14.30
2018,05,28,09,03,14.30
2018,05,28,09,04,14.30
2018,05,28,09,05,14.40
2018,05,28,09,06,14.40
2018,05,28,09,07,14.40
2018,05,28,09,08,14.50
2018,05,28,09,09,14.50
2018,05,28,09,10,14.50
2018,05,28,09,11,14.50
2018,05,28,09,12,14.60
2018,05,28,09,13,14.60
2018,05,28,09,14,14.60
2018,05,28,09,15,14.60
2018,05,28,09,16,14.70
2018,05,28,09,17,14.70
2018,05,28,09,18,14.80
2018,05,28,09,19,14.80
2018,05,28,09,20,14.90
2018,05,28,09,21,14.90
2018,05,28,09,22,15.00
2018,05,28,09,23,15.10
2018,05,28,09,24,15.10
2018,05,28,09,25,15.10
2018,05,28,09,26,15.20
2018,05,28,09,27,15.20
2018,05,28,09,28,15.30
2018,05,28,09,29,15.30
2018,05,28,09,30,15.40
2018,05,28,09,31,15.50
2018,05,28,09,32,15.60
2018,05,28,09,33,15.70
2018,05,28,09,34,15.80
2018,05,28,09,35,15.80
2018,05,28,09,36,16.00
2018,05,28,09,37,16.10
2018,05,28,09,38,16.10
2018,05,28,09,39,16.20
2018,05,28,09,40,16.30
2018,05,28,09,41,16.30
2018,05,28,09,42,16.40
2018,05,28,09,43,16.50
2018,05,28,09,44,16.50
2018,05,28,09,45,16.60
2018,05,28,09,46,16.60
2018,05,28,09,47,16.70
2018,05,28,09,48,16.70
2018,05,28,09,49,16.80
2018,05,28,09,50,16.90
2018,05,28,09,51,17.00
2018,05,28,09,52,17.00
2018,05,28,09,53,17.10
2018,05,28,09,54,17.20
2018,05,28,09,55,17.30
2018,05,28,09,56,17.40
2018,05,28,09,57,17.40
2018,05,28,09,58,17.50
2018,05,28,09,59,17.60
2018,05,28,10,00,17.70
2018,05,28,10,01,17.70
2018,05,28,10,02,17.80
2018,05,28,10,03,17.90
2018,05,28,10,04,18.00
2018,05,28,10,05,18.10
2018,05,28,10,06,18.20
2018,05,28,10,07,18.30
2018,05,28,10,08,18.30
2018,05,28,10,09,18.40
2018,05,28,10,10,18.40
2018,05,28,10,11,18.30
2018,05,28,10,12,18.30
2018,05,28,10,13,18.30
2018,05,28,10,14,18.20
2018,05,28,10,15,18.20
2018,05,28,10,16,18.20
2018,05,28,10,17,18.20
2018,05,28,10,18,18.30
2018,05,28,10,19,18.30
2018,05,28,10,20,18.30
2018,05,28,10,21,18.30
2018,05,28,10,22,18.30
2018,05,28,10,23,18.40
2018,05,28,10,24,18.50
2018,05,28,10,25,18.60
2018,05,28,10,26,18.70
2018,05,28,10,27,18.80
2018,05,28,10,28,18.90
2018,05,28,10,29,19.00
2018,05,28,10,30,19.00
2018,05,28,10,31,19.00
2018,05,28,10,32,19.00
2018,05,28,10,33,19.00
2018,05,28,10,34,18.90
2018,05,28,10,35,18.90
2018,05,28,10,36,19.00
2018,05,28,10,37,19.00
2018,05,28,10,38,19.10
2018,05,28,10,39,19.10
2018,05,28,10,40,19.10
2018,05,28,10,41,19.10
2018,05,28,10,42,19.10
2018,05,28,10,43,19.10
2018,05,28,10,44,19.10
2018,05,28,10,45,19.10
2018,05,28,10,46,19.10
2018,05,28,10,47,19.10
2018,05,28,10,48,19.20
2018,05,28,10,49,19.20
2018,05,28,10,50,19.30
2018,05,28,10,51,19.30
2018,05,28,10,52,19.40
2018,05,28,10,53,19.50
2018,05,28,10,54,19.60
2018,05,28,10,55,19.70
2018,05,28,10,56,19.80
2018,05,28,10,57,19.90
2018,05,28,10,58,20.00
2018,05,28,10,59,20.10
2018,05,28,11,00,20.10
2018,05,28,11,01,20.10
2018,05,28,11,02,19.90
2018,05,28,11,03,19.80
2018,05,28,11,04,19.80
2018,05,28,11,05,19.70
2018,05,28,11,06,19.60
2018,05,28,11,07,19.50
2018,05,28,11,08,19.40
2018,05,28,11,09,19.20
2018,05,28,11,10,19.00
2018,05,28,11,11,18.90
2018,05,28,11,12,18.90
2018,05,28,11,13,18.80
2018,05,28,11,14,18.80
2018,05,28,11,15,18.80
2018,05,28,11,16,18.90
2018,05,28,11,17,18.90
2018,05,28,11,18,18.90
2018,05,28,11,19,19.00
2018,05,28,11,20,19.10
2018,05,28,11,21,19.20
2018,05,28,11,22,19.30
2018,05,28,11,23,19.30
2018,05,28,11,24,19.30
2018,05,28,11,25,19.20
2018,05,28,11,26,19.00
2018,05,28,11,27,18.90
2018,05,28,11,28,18.90
2018,05,28,11,29,18.90
2018,05,28,11,30,19.00
2018,05,28,11,31,19.00
2018,05,28,11,32,19.00
2018,05,28,11,33,19.10
2018,05,28,11,34,19.10
2018,05,28,11,35,19.00
2018,05,28,11,36,19.00
2018,05,28,11,37,18.90
2018,05,28,11,38,18.80
2018,05,28,11,39,18.80
2018,05,28,11,40,18.80
2018,05,28,11,41,18.80
2018,05,28,11,42,18.80
2018,05,28,11,43,18.90
2018,05,28,11,44,18.90
2018,05,28,11,45,18.90
2018,05,28,11,46,18.90
2018,05,28,11,47,18.80
2018,05,28,11,48,18.80
2018,05,28,11,49,18.70
2018,05,28,11,50,18.70
2018,05,28,11,51,18.70
2018,05,28,11,52,18.70
2018,05,28,11,53,18.70
2018,05,28,11,54,18.70
2018,05,28,11,55,18.70
2018,05,28,11,56,18.70
2018,05,28,11,57,18.70
2018,05,28,11,58,18.70
2018,05,28,11,59,18.70
2018,05,28,12,00,18.60
2018,05,28,12,01,18.60
2018,05,28,12,02,18.70
2018,05,28,12,03,18.80
2018,05,28,12,04,18.90
2018,05,28,12,05,19.00
2018,05,28,12,06,19.10
2018,05,28,12,07,19.10
2018,05,28,12,08,19.10
2018,05,28,12,09,19.10
2018,05,28,12,10,19.00
2018,05,28,12,11,19.00
2018,05,28,12,12,19.10
2018,05,28,12,13,19.00
2018,05,28,12,14,19.00
2018,05,28,12,15,19.00
2018,05,28,12,16,19.00
2018,05,28,12,17,19.00
2018,05,28,12,18,19.10
2018,05,28,12,19,19.20
2018,05,28,12,20,19.20
2018,05,28,12,21,19.30
2018,05,28,12,22,19.40
2018,05,28,12,23,19.40
2018,05,28,12,24,19.40
2018,05,28,12,25,19.50
2018,05,28,12,26,19.50
2018,05,28,12,27,19.60
2018,05,28,12,28,19.70
2018,05,28,12,29,19.70
2018,05,28,12,30,19.80
2018,05,28,12,31,19.90
2018,05,28,12,32,19.90
2018,05,28,12,33,20.00
2018,05,28,12,34,20.00
2018,05,28,12,35,20.00
2018,05,28,12,36,20.00
2018,05,28,12,37,19.90
2018,05,28,12,38,19.90
2018,05,28,12,39,20.00
2018,05,28,12,40,20.10
2018,05,28,12,41,20.10
2018,05,28,12,42,20.30
2018,05,28,12,43,20.40
2018,05,28,12,44,20.50
2018,05,28,12,45,20.60
2018,05,28,12,46,20.60
2018,05,28,12,47,20.50
2018,05,28,12,48,20.60
2018,05,28,12,49,20.50
2018,05,28,12,50,20.50
2018,05,28,12,51,20.50
2018,05,28,12,52,20.50
2018,05,28,12,53,20.50
2018,05,28,12,54,20.50
2018,05,28,12,55,20.60
2018,05,28,12,56,20.60
2018,05,28,12,57,20.60
2018,05,28,12,58,20.60
2018,05,28,12,59,20.60
2018,05,28,13,00,20.60
2018,05,28,13,01,20.70
2018,05,28,13,02,20.80
2018,05,28,13,03,20.80
2018,05,28,13,04,20.90
2018,05,28,13,05,20.90
2018,05,28,13,06,20.90
2018,05,28,13,07,21.00
2018,05,28,13,08,21.10
2018,05,28,13,09,21.10
2018,05,28,13,10,21.10
2018,05,28,13,11,21.20
2018,05,28,13,12,21.20
2018,05,28,13,13,21.20
2018,05,28,13,14,21.20
2018,05,28,13,15,21.30
2018,05,28,13,16,21.30
2018,05,28,13,17,21.40
2018,05,28,13,18,21.40
2018,05,28,13,19,21.40
2018,05,28,13,20,21.30
2018,05,28,13,21,21.20
2018,05,28,13,22,21.20
2018,05,28,13,23,21.20
2018,05,28,13,24,21.20
2018,05,28,13,25,21.10
2018,05,28,13,26,21.00
2018,05,28,13,27,20.90
2018,05,28,13,28,20.80
2018,05,28,13,29,20.70
2018,05,28,13,30,20.70
2018,05,28,13,31,20.70
2018,05,28,13,32,20.70
2018,05,28,13,33,20.70
2018,05,28,13,34,20.70
2018,05,28,13,35,20.70
2018,05,28,13,36,20.70
2018,05,28,13,37,20.70
2018,05,28,13,38,20.80
2018,05,28,13,39,20.90
2018,05,28,13,40,21.00
2018,05,28,13,41,21.20
2018,05,28,13,42,21.30
2018,05,28,13,43,21.30
2018,05,28,13,44,21.40
2018,05,28,13,45,21.50
2018,05,28,13,46,21.50
2018,05,28,13,47,21.60
2018,05,28,13,48,21.60
2018,05,28,13,49,21.70
2018,05,28,13,50,21.70
2018,05,28,13,51,21.70
2018,05,28,13,52,21.70
2018,05,28,13,53,21.70
2018,05,28,13,54,21.50
2018,05,28,13,55,21.50
2018,05,28,13,56,21.40
2018,05,28,13,57,21.40
2018,05,28,13,58,21.40
2018,05,28,13,59,21.40
2018,05,28,14,00,21.40
2018,05,28,14,01,21.40
2018,05,28,14,02,21.30
2018,05,28,14,03,21.30
2018,05,28,14,04,21.30
2018,05,28,14,05,21.20
2018,05,28,14,06,21.10
2018,05,28,14,07,21.10
2018,05,28,14,08,21.00
2018,05,28,14,09,21.00
2018,05,28,14,10,21.00
2018,05,28,14,11,21.00
2018,05,28,14,12,21.10
2018,05,28,14,13,21.20
2018,05,28,14,14,21.20
2018,05,28,14,15,21.30
2018,05,28,14,16,21.20
2018,05,28,14,17,21.20
2018,05,28,14,18,21.10
2018,05,28,14,19,21.10
2018,05,28,14,20,21.10
2018,05,28,14,21,21.10
2018,05,28,14,22,21.20
2018,05,28,14,23,21.20
2018,05,28,14,24,21.30
2018,05,28,14,25,21.30
2018,05,28,14,26,21.30
2018,05,28,14,27,21.30
2018,05,28,14,28,21.20
2018,05,28,14,29,21.20
2018,05,28,14,30,21.30
2018,05,28,14,31,21.30
2018,05,28,14,32,21.30
2018,05,28,14,33,21.30
2018,05,28,14,34,21.30
2018,05,28,14,35,21.30
2018,05,28,14,36,21.30
2018,05,28,14,37,21.30
2018,05,28,14,38,21.20
2018,05,28,14,39,21.20
2018,05,28,14,40,21.20
2018,05,28,14,41,21.20
2018,05,28,14,42,21.30
2018,05,28,14,43,21.30
2018,05,28,14,44,21.40
2018,05,28,14,45,21.40
2018,05,28,14,46,21.40
2018,05,28,14,47,21.50
2018,05,28,14,48,21.60
2018,05,28,14,49,21.60
2018,05,28,14,50,21.60
2018,05,28,14,51,21.60
2018,05,28,14,52,21.70
2018,05,28,14,53,21.70
2018,05,28,14,54,21.80
2018,05,28,14,55,21.80
2018,05,28,14,56,21.80
2018,05,28,14,57,21.80
2018,05,28,14,58,21.80
2018,05,28,14,59,21.70
2018,05,28,15,00,21.60
2018,05,28,15,01,21.50
2018,05,28,15,02,21.40
2018,05,28,15,03,21.30
2018,05,28,15,04,21.30
2018,05,28,15,05,21.20
2018,05,28,15,06,21.20
2018,05,28,15,07,21.20
2018,05,28,15,08,21.20
2018,05,28,15,09,21.20
2018,05,28,15,10,21.20
2018,05,28,15,11,21.30
2018,05,28,15,12,21.30
2018,05,28,15,13,21.40
2018,05,28,15,14,21.50
2018,05,28,15,15,21.50
2018,05,28,15,16,21.50
2018,05,28,15,17,21.50
2018,05,28,15,18,21.40
2018,05,28,15,19,21.40
2018,05,28,15,20,21.40
2018,05,28,15,21,21.40
2018,05,28,15,22,21.40
2018,05,28,15,23,21.30
2018,05,28,15,24,21.30
2018,05,28,15,25,21.20
2018,05,28,15,26,21.20
2018,05,28,15,27,21.20
2018,05,28,15,28,21.20
2018,05,28,15,29,21.20
2018,05,28,15,30,21.20
2018,05,28,15,31,21.20
2018,05,28,15,32,21.30
2018,05,28,15,33,21.30
2018,05,28,15,34,21.30
2018,05,28,15,35,21.30
2018,05,28,15,36,21.30
2018,05,28,15,37,21.30
2018,05,28,15,38,21.40
2018,05,28,15,39,21.40
2018,05,28,15,40,21.50
2018,05,28,15,41,21.60
2018,05,28,15,42,21.60
2018,05,28,15,43,21.60
2018,05,28,15,44,21.70
2018,05,28,15,45,21.70
2018,05,28,15,46,21.80
2018,05,28,15,47,21.90
2018,05,28,15,48,21.90
2018,05,28,15,49,22.00
2018,05,28,15,50,22.00
2018,05,28,15,51,22.00
2018,05,28,15,52,22.00
2018,05,28,15,53,21.90
2018,05,28,15,54,21.90
2018,05,28,15,55,21.90
2018,05,28,15,56,21.80
2018,05,28,15,57,21.70
2018,05,28,15,58,21.60
2018,05,28,15,59,21.50
2018,05,28,16,00,21.60
2018,05,28,16,01,21.60
2018,05,28,16,02,21.60
2018,05,28,16,03,21.70
2018,05,28,16,04,21.70
2018,05,28,16,05,21.80
2018,05,28,16,06,21.80
2018,05,28,16,07,21.90
2018,05,28,16,08,21.90
2018,05,28,16,09,22.00
2018,05,28,16,10,22.10
2018,05,28,16,11,22.20
2018,05,28,16,12,22.10
2018,05,28,16,13,22.00
2018,05,28,16,14,22.00
2018,05,28,16,15,22.00
2018,05,28,16,16,22.00
2018,05,28,16,17,22.00
2018,05,28,16,18,22.00
2018,05,28,16,19,22.00
2018,05,28,16,20,22.00
2018,05,28,16,21,22.00
2018,05,28,16,22,22.00
2018,05,28,16,23,22.00
2018,05,28,16,24,22.00
2018,05,28,16,25,22.00
2018,05,28,16,26,22.00
2018,05,28,16,27,22.00
2018,05,28,16,28,22.00
2018,05,28,16,29,22.10
2018,05,28,16,30,22.00
2018,05,28,16,31,22.00
2018,05,28,16,32,21.90
2018,05,28,16,33,21.90
2018,05,28,16,34,21.80
2018,05,28,16,35,21.80
2018,05,28,16,36,21.70
2018,05,28,16,37,21.70
2018,05,28,16,38,21.70
2018,05,28,16,39,21.70
2018,05,28,16,40,21.70
2018,05,28,16,41,21.60
2018,05,28,16,42,21.60
2018,05,28,16,43,21.60
2018,05,28,16,44,21.60
2018,05,28,16,45,21.60
2018,05,28,16,46,21.50
2018,05,28,16,47,21.40
2018,05,28,16,48,21.40
2018,05,28,16,49,21.40
2018,05,28,16,50,21.40
2018,05,28,16,51,21.50
2018,05,28,16,52,21.50
2018,05,28,16,53,21.40
2018,05,28,16,54,21.40
2018,05,28,16,55,21.40
2018,05,28,16,56,21.40
2018,05,28,16,57,21.30
2018,05,28,16,58,21.30
2018,05,28,16,59,21.20
2018,05,28,17,00,21.20
2018,05,28,17,01,21.30
2018,05,28,17,02,21.30
2018,05,28,17,03,21.30
2018,05,28,17,04,21.30
2018,05,28,17,05,21.30
2018,05,28,17,06,21.40
2018,05,28,17,07,21.40
2018,05,28,17,08,21.40
2018,05,28,17,09,21.40
2018,05,28,17,10,21.40
2018,05,28,17,11,21.40
2018,05,28,17,12,21.40
2018,05,28,17,13,21.40
2018,05,28,17,14,21.30
2018,05,28,17,15,21.30
2018,05,28,17,16,21.30
2018,05,28,17,17,21.40
2018,05,28,17,18,21.40
2018,05,28,17,19,21.40
2018,05,28,17,20,21.40
2018,05,28,17,21,21.50
2018,05,28,17,22,21.60
2018,05,28,17,23,21.60
2018,05,28,17,24,21.60